Wiscasset, ME

2:00 AM EDT on April 24, 2018 (GMT -0400)
Wiscasset

Weather History for KIWI - October, 2013

Change the Weather History Date:

Thursday, October 24, 2013

  Actual Average Record
Temperature  
Mean Temperature 42 °F -  
Max Temperature 52 °F 52 °F 68 °F (2017)
Min Temperature 33 °F 32 °F 24 °F (2008)
Degree Days  
Heating Degree Days 22    
Moisture  
Dew Point 30 °F    
Average Humidity 64    
Maximum Humidity 92    
Minimum Humidity 36    
Precipitation  
Precipitation 0.00 in - - ()
Sea Level Pressure  
Sea Level Pressure 29.71 in    
Wind  
Wind Speed 2 mph (WSW)    
Max Wind Speed 9 mph    
Max Gust Speed 24 mph    
Visibility 10 miles    
Events      
Averages and records for this station are not official NWS values.
T = Trace of Precipitation, MM = Missing Value Source: NWS Daily Summary

Daily Weather History Graph

Daily Weather History Graph

Search for Another Location

Airport or City:

Astronomy

Oct. 24, 2013 Rise Set
Actual Time 7:05 AM EDT 5:40 PM EDT
Civil Twilight 6:35 AM EDT 6:09 PM EDT
Nautical Twilight 6:01 AM EDT 6:43 PM EDT
Astronomical Twilight 5:28 AM EDT 7:16 PM EDT
Moon 9:57 PM EDT 12:08 PM EDT
Length of Visible Light 11h 34m
Length of Day
10h 35m
Waning Gibbous, 71% of the Moon is Illuminated
Oct 24
Waning Gibbous
Oct 26
Last Quarter
Nov 3
New
Nov 10
First Quarter
Nov 17
Full

Hourly Weather History & Observations

Time (EDT) Temp. Windchill Dew Point Humidity Pressure Visibility Wind Dir Wind Speed Gust Speed Precip Events Conditions
12:53 AM 44.1 °F - 35.1 °F 71% 29.61 in 10.0 mi Calm Calm - N/A   Overcast
1:53 AM 43.0 °F 40.3 °F 33.1 °F 68% 29.63 in 10.0 mi Variable 4.6 mph - N/A   Mostly Cloudy
2:53 AM 39.9 °F - 34.0 °F 79% 29.63 in 10.0 mi Calm Calm - N/A   Partly Cloudy
3:53 AM 37.9 °F - 34.0 °F 86% 29.64 in 10.0 mi Calm Calm - N/A   Overcast
4:53 AM 37.0 °F - 34.0 °F 89% 29.65 in 10.0 mi Calm Calm - N/A   Overcast
5:53 AM 35.1 °F - 32.0 °F 89% 29.67 in 10.0 mi Calm Calm - N/A   Partly Cloudy
6:53 AM 33.1 °F - 30.0 °F 89% 29.69 in 10.0 mi Calm Calm - N/A   Clear
7:53 AM 34.0 °F - 32.0 °F 92% 29.71 in 10.0 mi Calm Calm - N/A   Clear
8:53 AM 43.0 °F - 35.1 °F 74% 29.72 in 10.0 mi Calm Calm - N/A   Clear
9:53 AM 46.0 °F 43.1 °F 28.9 °F 51% 29.73 in 10.0 mi Variable 5.8 mph - N/A   Clear
10:53 AM 46.9 °F - 26.1 °F 44% 29.74 in 10.0 mi WSW 8.1 mph - N/A   Clear
12:53 PM 48.9 °F - 25.0 °F 39% 29.70 in - North - - N/A   Unknown
1:53 PM 48.9 °F - 26.1 °F 41% 29.68 in 10.0 mi WSW 5.8 mph - N/A   Unknown
2:53 PM 51.1 °F - 25.0 °F 36% 29.67 in 10.0 mi Variable 3.5 mph 17.3 mph N/A   Mostly Cloudy
3:53 PM 52.0 °F - 26.1 °F 37% 29.69 in 10.0 mi WSW 9.2 mph 24.2 mph N/A   Mostly Cloudy
4:53 PM 50.0 °F - 27.0 °F 41% 29.70 in 10.0 mi WSW 6.9 mph - N/A   Overcast
5:53 PM 48.9 °F - 28.0 °F 44% 29.71 in 10.0 mi WSW 9.2 mph - N/A   Overcast
6:53 PM 48.0 °F - 28.9 °F 48% 29.74 in 10.0 mi Variable 5.8 mph - N/A   Mostly Cloudy
7:53 PM 46.9 °F - 30.0 °F 52% 29.76 in 10.0 mi WSW 6.9 mph - N/A   Overcast
8:53 PM 46.0 °F 43.9 °F 30.0 °F 54% 29.77 in 10.0 mi Variable 4.6 mph - N/A   Overcast
9:53 PM 39.9 °F - 32.0 °F 73% 29.80 in 10.0 mi Calm Calm - N/A   Clear
10:53 PM 37.0 °F - 32.0 °F 82% 29.81 in 10.0 mi Calm Calm - N/A   Clear
11:53 PM 34.0 °F - 30.9 °F 89% 29.82 in 10.0 mi Calm Calm - N/A   Clear